H1 CPF 2 NER 2021 1 29 9 029 01 glonass133 H2 1403201 9133 40001 2021 1 29 0 0 0 2021 2 1 23 45 0 900 1 1 0 0 0 1 H9 10 0 59243 0.00000 0 10842221.888 21869267.372 7373179.329 10 0 59243 900.00000 0 11281058.905 22470647.146 4234014.392 10 0 59243 1800.00000 0 11602069.969 22681101.536 1012494.274 10 0 59243 2700.00000 0 11750008.933 22516495.440 -2228720.691 10 0 59243 3600.00000 0 11675178.380 22005301.096 -5426571.692 10 0 59243 4500.00000 0 11335756.613 21187285.874 -8518836.018 10 0 59243 5400.00000 0 10699801.465 20111741.578 -11445345.661 10 0 59243 6300.00000 0 9746844.650 18835330.456 -14149165.351 10 0 59243 7200.00000 0 8469008.052 17419639.629 -16577706.154 10 0 59243 8100.00000 0 6871593.661 15928547.812 -18683752.398 10 0 59243 9000.00000 0 4973121.193 14425515.968 -20426381.652 10 0 59243 9900.00000 0 2804811.017 12970916.508 -21771759.720 10 0 59243 10800.00000 0 409533.327 11619513.552 -22693795.474 10 0 59243 11700.00000 0 -2159733.093 10418200.090 -23174643.238 10 0 59243 12600.00000 0 -4841868.471 9404086.663 -23205043.502 10 0 59243 13500.00000 0 -7569924.463 8603021.045 -22784496.037 10 0 59243 14400.00000 0 -10273685.439 8028600.037 -21921262.643 10 0 59243 15300.00000 0 -12882372.433 7681713.726 -20632200.017 10 0 59243 16200.00000 0 -15327377.813 7550640.026 -18942426.418 10 0 59243 17100.00000 0 -17544917.537 7611684.294 -16884828.838 10 0 59243 18000.00000 0 -19478491.251 7830335.961 -14499420.415 10 0 59243 18900.00000 0 -21081048.640 8162892.463 -11832560.638 10 0 59243 19800.00000 0 -22316772.667 8558481.225 -8936053.394 10 0 59243 20700.00000 0 -23162406.198 8961393.814 -5866140.457 10 0 59243 21600.00000 0 -23608067.680 9313633.291 -2682409.875 10 0 59243 22500.00000 0 -23657522.811 9557566.916 553359.534 10 0 59243 23400.00000 0 -23327901.810 9638571.999 3778395.092 10 0 59243 24300.00000 0 -22648875.100 9507562.981 6930145.332 10 0 59243 25200.00000 0 -21661322.731 9123292.971 9947489.771 10 0 59243 26100.00000 0 -20415553.973 8454332.383 12771919.919 10 0 59243 27000.00000 0 -18969152.111 7480640.991 15348668.965 10 0 59243 27900.00000 0 -17384534.921 6194666.652 17627768.606 10 0 59243 28800.00000 0 -15726332.957 4601923.808 19565012.971 10 0 59243 29700.00000 0 -14058695.115 2721026.442 21122811.579 10 0 59243 30600.00000 0 -12442633.697 583172.786 22270915.405 10 0 59243 31500.00000 0 -10933519.445 -1768898.138 22987002.425 10 0 59243 32400.00000 0 -9578830.608 -4282436.341 23257111.751 10 0 59243 33300.00000 0 -8416249.490 -6896635.098 23075918.046 10 0 59243 34200.00000 0 -7472185.569 -9544929.913 22446840.781 10 0 59243 35100.00000 0 -6760786.573 -12157548.242 21381985.831 10 0 59243 36000.00000 0 -6283478.684 -14664205.340 19901919.857 10 0 59243 36900.00000 0 -6029055.122 -16996835.068 18035280.973 10 0 59243 37800.00000 0 -5974309.429 -19092242.768 15818232.294 10 0 59243 38700.00000 0 -6085186.968 -20894570.026 13293767.906 10 0 59243 39600.00000 0 -6318406.284 -22357468.435 10510883.947 10 0 59243 40500.00000 0 -6623481.925 -23445891.368 7523630.178 10 0 59243 41400.00000 0 -6945063.134 -24137428.383 4390060.099 10 0 59243 42300.00000 0 -7225489.101 -24423125.841 1171100.071 10 0 59243 43200.00000 0 -7407451.940 -24307758.998 -2070640.258 10 0 59243 44100.00000 0 -7436653.668 -23809543.907 -5272092.509 10 0 59243 45000.00000 0 -7264343.508 -22959301.271 -8370964.303 10 0 59243 45900.00000 0 -6849626.756 -21799107.757 -11306959.257 10 0 59243 46800.00000 0 -6161446.120 -20380492.002 -14022957.528 10 0 59243 47700.00000 0 -5180150.450 -18762251.983 -16466133.051 10 0 59243 48600.00000 0 -3898583.327 -17007986.305 -18588985.140 10 0 59243 49500.00000 0 -2322644.493 -15183443.916 -20350264.049 10 0 59243 50400.00000 0 -471299.549 -13353804.218 -21715772.397 10 0 59243 51300.00000 0 1623963.293 -11581002.042 -22659027.098 10 0 59243 52200.00000 0 3920207.370 -9921209.684 -23161769.434 10 0 59243 53100.00000 0 6364608.146 -8422581.247 -23214313.841 10 0 59243 54000.00000 0 8896435.560 -7123353.048 -22815729.348 10 0 59243 54900.00000 0 11449375.889 -6050378.629 -21973850.751 10 0 59243 55800.00000 0 13954096.703 -5218158.507 -20705119.799 10 0 59243 56700.00000 0 16340948.553 -4628403.847 -19034259.930 10 0 59243 57600.00000 0 18542691.364 -4270150.841 -16993791.109 10 0 59243 58500.00000 0 20497132.440 -4120419.514 -14623394.336 10 0 59243 59400.00000 0 22149566.765 -4145387.865 -11969138.259 10 0 59243 60300.00000 0 23454918.495 -4302030.680 -9082582.818 10 0 59243 61200.00000 0 24379494.934 -4540153.007 -6019777.399 10 0 59243 62100.00000 0 24902280.489 -4804731.690 -2840172.918 10 0 59243 63000.00000 0 25015717.298 -5038465.564 394531.118 10 0 59243 63900.00000 0 24725940.598 -5184426.210 3621582.009 10 0 59243 64800.00000 0 24052459.759 -5188697.024 6778388.633 10 0 59243 65700.00000 0 23027298.934 -5002888.927 9803732.035 10 0 59243 66600.00000 0 21693633.853 -4586426.363 12638948.415 10 0 59243 67500.00000 0 20103982.166 -3908506.868 15229061.863 10 0 59243 68400.00000 0 18318023.197 -2949651.261 17523845.260 10 0 59243 69300.00000 0 16400138.214 -1702778.647 19478789.214 10 0 59243 70200.00000 0 14416773.740 -173760.229 21055960.850 10 0 59243 71100.00000 0 12433737.479 1618572.453 22224736.424 10 0 59243 72000.00000 0 10513539.143 3642966.537 22962394.029 10 0 59243 72900.00000 0 8712886.372 5856813.198 23254555.327 10 0 59243 73800.00000 0 7080439.406 8207696.667 23095467.935 10 0 59243 74700.00000 0 5654917.545 10635364.045 22488122.837 10 0 59243 75600.00000 0 4463635.775 13074035.594 21444204.212 10 0 59243 76500.00000 0 3521532.212 15454960.837 19983871.965 10 0 59243 77400.00000 0 2830726.741 17709115.143 18135380.307 10 0 59243 78300.00000 0 2380629.110 19769925.355 15934538.828 10 0 59243 79200.00000 0 2148591.807 21575911.226 13424025.437 10 0 59243 80100.00000 0 2101080.186 23073132.401 10652563.721 10 0 59243 81000.00000 0 2195310.398 24217338.406 7673979.946 10 0 59243 81900.00000 0 2381285.703 24975731.135 4546157.660 10 0 59243 82800.00000 0 2604144.689 25328265.242 1329910.236 10 0 59243 83700.00000 0 2806721.346 25268431.272 -1912206.415 10 0 59243 84600.00000 0 2932207.675 24803488.064 -5117117.277 10 0 59243 85500.00000 0 2926804.958 23954134.315 -8222463.060 10 0 59244 0.00000 0 2742250.182 22753633.109 -11167821.431 10 0 59244 900.00000 0 2338108.867 21246426.155 -13895890.279 10 0 59244 1800.00000 0 1683737.295 19486296.981 -16353608.235 10 0 59244 2700.00000 0 759827.733 17534160.105 -18493191.128 10 0 59244 3600.00000 0 -440527.363 15455570.161 -20273063.138 10 0 59244 4500.00000 0 -1911299.546 13318055.806 -21658664.633 10 0 59244 5400.00000 0 -3633539.642 11188390.557 -22623121.234 10 0 59244 6300.00000 0 -5575944.370 9129914.894 -23147761.543 10 0 59244 7200.00000 0 -7695951.001 7200021.500 -23222473.980 10 0 59244 8100.00000 0 -9941314.788 5447908.151 -22845896.519 10 0 59244 9000.00000 0 -12252103.652 3912691.231 -22025436.221 10 0 59244 9900.00000 0 -14563027.181 2621957.558 -20777118.729 10 0 59244 10800.00000 0 -16806003.175 1590813.522 -19125271.085 10 0 59244 11700.00000 0 -18912855.090 821469.715 -17102044.257 10 0 59244 12600.00000 0 -20818028.207 303376.768 -14746784.842 10 0 59244 13500.00000 0 -22461211.656 13905.027 -12105268.161 10 0 59244 14400.00000 0 -23789757.291 -80462.047 -9228807.598 10 0 59244 15300.00000 0 -24760794.802 -22472.290 -6173257.522 10 0 59244 16200.00000 0 -25342955.177 137942.060 -2997929.086 10 0 59244 17100.00000 0 -25517630.919 346015.312 235560.060 10 0 59244 18000.00000 0 -25279720.768 544703.494 3464479.701 10 0 59244 18900.00000 0 -24637828.253 677335.352 6626201.486 10 0 59244 19800.00000 0 -23613906.157 690246.894 9659410.358 10 0 59244 20700.00000 0 -22242362.129 535288.074 12505289.484 10 0 59244 21600.00000 0 -20568663.039 172095.591 15108656.011 10 0 59244 22500.00000 0 -18647496.474 -429964.258 17419025.998 10 0 59244 23400.00000 0 -16540566.028 -1290264.871 19391588.296 10 0 59244 24300.00000 0 -14314112.056 -2415865.763 20988069.120 10 0 59244 25200.00000 0 -12036260.725 -3800981.236 22177471.158 10 0 59244 26100.00000 0 -9774311.177 -5426994.668 22936673.389 10 0 59244 27000.00000 0 -7592072.961 -7263019.229 23250880.435 10 0 59244 27900.00000 0 -5547363.696 -9266983.225 23113912.883 10 0 59244 28800.00000 0 -3689770.401 -11387196.371 22528332.900 10 0 59244 29700.00000 0 -2058766.927 -13564333.408 21505402.301 10 0 59244 30600.00000 0 -682265.285 -15733753.895 20064873.244 10 0 59244 31500.00000 0 424339.089 -17828062.707 18234614.757 10 0 59244 32400.00000 0 1258588.693 -19779805.419 16050081.333 10 0 59244 33300.00000 0 1830834.596 -21524186.618 13553632.882 10 0 59244 34200.00000 0 2163561.999 -23001697.622 10793718.377 10 0 59244 35100.00000 0 2290199.408 -24160543.461 7823938.349 10 0 59244 36000.00000 0 2253461.962 -24958766.870 4702004.006 10 0 59244 36900.00000 0 2103299.333 -25365979.366 1488613.255 10 0 59244 37800.00000 0 1894535.661 -25364625.901 -1753734.252 10 0 59244 38700.00000 0 1684302.284 -24950729.072 -4961959.420 10 0 59244 39600.00000 0 1529373.037 -24134080.891 -8073638.618 10 0 59244 40500.00000 0 1483516.197 -22937873.605 -11028226.256 10 0 59244 41400.00000 0 1594976.521 -21397784.874 -13768240.291 10 0 59244 42300.00000 0 1904195.193 -19560555.817 -16240386.633 10 0 59244 43200.00000 0 2441865.308 -17482121.957 -18396600.013 10 0 59244 44100.00000 0 3227406.128 -15225375.825 -20194980.691 10 0 59244 45000.00000 0 4267921.350 -12857655.480 -21600608.655 10 0 59244 45900.00000 0 5557686.008 -10448064.386 -22586219.740 10 0 59244 46800.00000 0 7078184.230 -8064734.820 -23132730.948 10 0 59244 47700.00000 0 8798696.695 -5772149.048 -23229605.337 10 0 59244 48600.00000 0 10677413.554 -3628629.604 -22875050.029 10 0 59244 49500.00000 0 12663026.612 -1684102.547 -22076044.131 10 0 59244 50400.00000 0 14696734.366 21774.026 -20848196.562 10 0 59244 51300.00000 0 16714576.436 1461039.571 -19215436.951 10 0 59244 52200.00000 0 18650000.117 2618360.713 -17209545.886 10 0 59244 53100.00000 0 20436552.054 3491423.704 -14869533.774 10 0 59244 54000.00000 0 22010582.849 4090775.137 -12240880.441 10 0 59244 54900.00000 0 23313851.858 4439119.335 -9374650.173 10 0 59244 55800.00000 0 24295923.432 4570103.494 -6326499.430 10 0 59244 56700.00000 0 24916254.696 4526643.135 -3155596.443 10 0 59244 57600.00000 0 25145887.697 4358859.553 76526.341 10 0 59244 58500.00000 0 24968675.335 4121717.163 3307164.588 10 0 59244 59400.00000 0 24381989.975 3872461.093 6473656.067 10 0 59244 60300.00000 0 23396885.244 3667963.681 9514592.792 10 0 59244 61200.00000 0 22037704.349 3562092.131 12371007.831 10 0 59244 62100.00000 0 20341151.310 3603208.624 14987514.016 10 0 59244 63000.00000 0 18354863.746 3831908.436 17313372.876 10 0 59244 63900.00000 0 16135546.572 4279091.568 19303473.453 10 0 59244 64800.00000 0 13746743.930 4964449.379 20919202.650 10 0 59244 65700.00000 0 11256341.542 5895430.396 22129190.842 10 0 59244 66600.00000 0 8733902.708 7066729.473 22909918.793 10 0 59244 67500.00000 0 6247947.846 8460322.809 23246174.583 10 0 59244 68400.00000 0 3863289.683 10046048.701 23131351.867 10 0 59244 69300.00000 0 1638534.030 11782711.172 22567583.619 10 0 59244 70200.00000 0 -376150.882 13619661.987 21565708.442 10 0 59244 71100.00000 0 -2140904.456 15498796.492 20145069.418 10 0 59244 72000.00000 0 -3627605.860 17356881.244 18333148.591 10 0 59244 72900.00000 0 -4820809.004 19128117.243 16165043.154 10 0 59244 73800.00000 0 -5718141.746 20746832.344 13682792.456 10 0 59244 74700.00000 0 -6330152.841 22150190.358 10934568.046 10 0 59244 75600.00000 0 -6679613.484 23280803.244 7973741.707 10 0 59244 76500.00000 0 -6800303.209 24089136.284 4857849.192 10 0 59244 77400.00000 0 -6735331.816 24535604.388 1647469.768 10 0 59244 78300.00000 0 -6535068.891 24592270.428 -1594956.338 10 0 59244 79200.00000 0 -6254769.291 24244073.103 -4806349.028 10 0 59244 80100.00000 0 -5951996.128 23489531.675 -7924223.263 10 0 59244 81000.00000 0 -5683951.497 22340897.102 -10887912.852 10 0 59244 81900.00000 0 -5504829.209 20823742.628 -13639758.363 10 0 59244 82800.00000 0 -5463302.790 18976010.725 -16126235.065 10 0 59244 83700.00000 0 -5600256.124 16846556.377 -18298998.371 10 0 59244 84600.00000 0 -5946853.682 14493247.821 -20115826.080 10 0 59244 85500.00000 0 -6523032.555 11980704.653 -21541438.928 10 0 59245 0.00000 0 -7336480.475 9377768.069 -22548183.753 10 0 59245 900.00000 0 -8382143.697 6754808.950 -23116566.467 10 0 59245 1800.00000 0 -9642284.575 4180986.151 -23235624.876 10 0 59245 2700.00000 0 -11087088.525 1721569.183 -22903134.967 10 0 59245 3600.00000 0 -12675793.189 -564564.516 -22125647.202 10 0 59245 4500.00000 0 -14358293.795 -2627153.624 -20918352.623 10 0 59245 5400.00000 0 -16077157.121 -4426407.354 -19304781.858 10 0 59245 6300.00000 0 -17769960.040 -5934414.302 -17316343.099 10 0 59245 7200.00000 0 -19371854.830 -7136048.588 -14991708.204 10 0 59245 8100.00000 0 -20818254.044 -8029337.215 -12376058.880 10 0 59245 9000.00000 0 -22047522.650 -8625275.109 -9520207.512 10 0 59245 9900.00000 0 -23003564.799 -8947097.262 -6479609.772 10 0 59245 10800.00000 0 -23638196.950 -9029040.162 -3313288.075 10 0 59245 11700.00000 0 -23913207.984 -8914646.006 -82686.807 10 0 59245 12600.00000 0 -23802019.998 -8654682.211 3149518.380 10 0 59245 13500.00000 0 -23290880.194 -8304764.812 6320634.092 10 0 59245 14400.00000 0 -22379533.883 -7922786.631 9369162.032 10 0 59245 15300.00000 0 -21081350.319 -7566259.075 12235987.638 10 0 59245 16200.00000 0 -19422895.904 -7289679.912 14865521.725 10 0 59245 17100.00000 0 -17442972.251 -7142038.110 17206773.350 10 0 59245 18000.00000 0 -15191158.820 -7164560.884 19214333.511 10 0 59245 18900.00000 0 -12725920.296 -7388797.923 20849251.212 10 0 59245 19800.00000 0 -10112356.668 -7835123.553 22079785.537 10 0 59245 20700.00000 0 -7419688.793 -8511720.183 22882019.654 10 0 59245 21600.00000 0 -4718582.875 -9414086.374 23240325.307 10 0 59245 22500.00000 0 -2078423.894 -10525091.100 23147669.038 10 0 59245 23400.00000 0 435349.751 -11815573.068 22605754.100 10 0 59245 24300.00000 0 2763740.762 -13245461.364 21624995.028 10 0 59245 25200.00000 0 4856413.808 -14765371.915 20224324.682 10 0 59245 26100.00000 0 6673551.045 -16318614.262 18430836.703 10 0 59245 27000.00000 0 8187265.548 -17843525.733 16279269.297 10 0 59245 27900.00000 0 9382514.179 -19276036.117 13811339.309 10 0 59245 28800.00000 0 10257471.963 -20552355.655 11074938.649 10 0 59245 29700.00000 0 10823352.657 -21611673.588 8123207.923 10 0 59245 30600.00000 0 11103683.436 -22398753.486 5013504.787 10 0 59245 31500.00000 0 11133064.619 -22866315.423 1806287.112 10 0 59245 32400.00000 0 10955467.411 -22977103.717 -1436067.113 10 0 59245 33300.00000 0 10622142.312 -22705551.990 -4650479.602 10 0 59245 34200.00000 0 10189227.557 -22038974.187 -7774406.653 10 0 59245 35100.00000 0 9715159.891 -20978230.310 -10747064.122 10 0 59245 36000.00000 0 9257998.393 -19537837.890 -13510617.702 10 0 59245 36900.00000 0 8872775.762 -17745523.836 -16011314.365 10 0 59245 37800.00000 0 8608990.147 -15641235.085 -18200532.348 10 0 59245 38700.00000 0 8508344.489 -13275649.283 -20035728.870 10 0 59245 39600.00000 0 8602829.495 -10708247.927 -21481266.985 10 0 59245 40500.00000 0 8913231.627 -8005032.543 -22509105.768 10 0 59245 41400.00000 0 9448129.252 -5235979.264 -23099340.789 10 0 59245 42300.00000 0 10203419.273 -2472337.933 -23240584.990 10 0 59245 43200.00000 0 11162394.133 216112.072 -22930183.209 10 0 59245 44100.00000 0 12296365.885 2763735.630 -22174256.815 10 0 59245 45000.00000 0 13565810.969 5111534.703 -20987578.157 10 0 59245 45900.00000 0 14921987.589 7209357.609 -19393277.683 10 0 59245 46800.00000 0 16308957.796 9017734.030 -17422389.678 10 0 59245 47700.00000 0 17665929.384 10509260.782 -15113245.600 10 0 59245 48600.00000 0 18929819.425 11669482.157 -12510726.856 10 0 59245 49500.00000 0 20037931.892 12497229.850 -9665391.447 10 0 59245 50400.00000 0 20930636.998 13004409.864 -6632491.474 10 0 59245 51300.00000 0 21553939.845 13215247.038 -3470900.542 10 0 59245 52200.00000 0 21861830.480 13165020.415 -241971.823 10 0 59245 53100.00000 0 21818316.673 12898343.887 2991650.900 10 0 59245 54000.00000 0 21399053.953 12467065.567 6167246.194 10 0 59245 54900.00000 0 20592504.351 11927875.156 9223228.422 10 0 59245 55800.00000 0 19400574.986 11339720.653 12100338.142 10 0 59245 56700.00000 0 17838709.383 10761143.563 14742786.620 10 0 59245 57600.00000 0 15935427.157 10247644.979 17099332.619 10 0 59245 58500.00000 0 13731330.692 9849193.404 19124270.971 10 0 59245 59400.00000 0 11277619.433 9607979.116 20778314.365 10 0 59245 60300.00000 0 8634172.692 9556509.443 22029351.879 10 0 59245 61200.00000 0 5867279.720 9716125.030 22853070.048 10 0 59245 62100.00000 0 3047110.170 10095999.652 23233424.915 10 0 59245 63000.00000 0 245028.744 10692666.024 23162956.149 10 0 59245 63900.00000 0 -2469135.644 11490088.217 22642937.095 10 0 59245 64800.00000 0 -5029754.000 12460278.619 21683357.555 10 0 59245 65700.00000 0 -7377885.055 13564434.689 20302739.018 10 0 59245 66600.00000 0 -9463484.082 14754548.970 18527785.077 10 0 59245 67500.00000 0 -11247241.464 15975425.930 16392872.853 10 0 59245 68400.00000 0 -12701974.831 17167021.839 13939394.209 10 0 59245 69300.00000 0 -13813516.874 18267009.931 11214958.648 10 0 59245 70200.00000 0 -14581061.962 19213463.185 8272472.625 10 0 59245 71100.00000 0 -15016957.289 19947541.565 5169112.628 10 0 59245 72000.00000 0 -15145947.609 20416069.882 1965212.014 10 0 59245 72900.00000 0 -15003905.873 20573896.630 -1276916.569 10 0 59245 73800.00000 0 -14636103.960 20385933.159 -4494199.679 10 0 59245 74700.00000 0 -14095097.355 19828785.815 -7624037.870 10 0 59245 75600.00000 0 -13438314.179 18891910.978 -10605531.795 10 0 59245 76500.00000 0 -12725451.610 17578243.085 -13380674.804 10 0 59245 77400.00000 0 -12015790.890 15904268.259 -15895487.832 10 0 59245 78300.00000 0 -11365545.459 13899539.661 -18101073.888 10 0 59245 79200.00000 0 -10825355.085 11605654.360 -19954571.221 10 0 59245 80100.00000 0 -10438032.476 9074734.316 -21419986.482 10 0 59245 81000.00000 0 -10236657.734 6367474.808 -22468891.877 10 0 59245 81900.00000 0 -10243101.111 3550841.624 -23080973.226 10 0 59245 82800.00000 0 -10467036.131 695512.960 -23244418.803 10 0 59245 83700.00000 0 -10905484.313 -2126827.730 -22956142.083 10 0 59245 84600.00000 0 -11542910.232 -4846235.778 -22221834.741 10 0 59245 85500.00000 0 -12351862.489 -7397172.662 -21055849.397 10 0 59246 0.00000 0 -13294133.231 -9720986.700 -19480914.897 10 0 59246 900.00000 0 -14322387.267 -11768104.869 -17527689.660 10 0 59246 1800.00000 0 -15382191.765 -13499846.220 -15234162.571 10 0 59246 2700.00000 0 -16414361.411 -14889781.679 -12644912.232 10 0 59246 3600.00000 0 -17357520.094 -15924586.545 -9810239.555 10 0 59246 4500.00000 0 -18150771.361 -16604350.368 -6785190.266 10 0 59246 5400.00000 0 -18736365.297 -16942333.455 -3628486.296 10 0 59246 6300.00000 0 -19062249.537 -16964181.528 -401386.757 10 0 59246 7200.00000 0 -19084397.017 -16706632.824 2833499.256 10 0 59246 8100.00000 0 -18768812.407 -16215773.178 6013425.028 10 0 59246 9000.00000 0 -18093132.630 -15544913.345 9076720.264 10 0 59246 9900.00000 0 -17047753.942 -14752178.573 11963983.204 10 0 59246 10800.00000 0 -15636437.790 -13897912.242 14619227.971 10 0 59246 11700.00000 0 -13876369.439 -13042003.006 16990965.221 10 0 59246 12600.00000 0 -11797666.168 -12241247.816 19033195.528 10 0 59246 13500.00000 0 -9442354.609 -11546861.505 20706296.844 10 0 59246 14400.00000 0 -6862858.727 -11002237.320 21977789.449 10 0 59246 15300.00000 0 -4120060.194 -10641052.226 22822964.058 10 0 59246 16200.00000 0 -1281010.446 -10485796.349 23225361.431 10 0 59246 17100.00000 0 1583611.987 -10546788.326 23177094.410 10 0 59246 18000.00000 0 4402194.606 -10821718.117 22679006.118 10 0 59246 18900.00000 0 7104924.054 -11295736.979 21740661.003 10 0 59246 19800.00000 0 9626446.910 -11942091.517 20380168.244 10 0 59246 20700.00000 0 11908348.419 -12723276.069 18623840.165 10 0 59246 21600.00000 0 13901346.800 -13592655.878 16505691.286 10 0 59246 22500.00000 0 15567112.172 -14496493.618 14066786.659 10 0 59246 23400.00000 0 16879634.392 -15376294.596 11354451.233 10 0 59246 24300.00000 0 17826082.797 -16171372.128 8421354.836 10 0 59246 25200.00000 0 18407121.904 -16821524.840 5324490.018 10 0 59246 26100.00000 0 18636669.958 -17269712.494 2124062.612 10 0 59246 27000.00000 0 18541110.756 -17464616.470 -1117683.224 10 0 59246 27900.00000 0 18157992.430 -17362975.704 -4337682.092 10 0 59246 28800.00000 0 17534268.689 -16931598.044 -7473281.937 10 0 59246 29700.00000 0 16724157.636 -16148960.760 -10463471.196 10 0 59246 30600.00000 0 15786709.578 -15006331.267 -13250073.647 10 0 59246 31500.00000 0 14783187.579 -13508359.647 -15778886.699 10 0 59246 32400.00000 0 13774372.393 -11673116.965 -18000740.352 10 0 59246 33300.00000 0 12817906.371 -9531576.938 -19872455.796 10 0 59246 34200.00000 0 11965789.007 -7126562.136 -21357684.821 10 0 59246 35100.00000 0 11262130.025 -4511198.373 -22427613.960 10 0 59246 36000.00000 0 10741254.652 -1746941.535 -23061520.063 10 0 59246 36900.00000 0 10426240.561 1098741.067 -23247167.094 10 0 59246 37800.00000 0 10327947.499 3954938.529 -22981037.124 10 0 59246 38700.00000 0 10444579.719 6750007.004 -22268391.670 10 0 59246 39600.00000 0 10761798.850 9414310.832 -21123162.773 10 0 59246 40500.00000 0 11253381.643 11882880.976 -19567676.374 10 0 59246 41400.00000 0 11882394.277 14097881.107 -17632213.625 10 0 59246 42300.00000 0 12602833.178 16010779.686 -15354418.837 10 0 59246 43200.00000 0 13361662.856 17584138.830 -12778565.576 10 0 59246 44100.00000 0 14101164.606 18792946.693 -9954695.114 10 0 59246 45000.00000 0 14761496.901 19625439.039 -6937643.974 10 0 59246 45900.00000 0 15283359.433 20083377.105 -3785979.351 10 0 59246 46800.00000 0 15610648.391 20181771.476 -560863.097 10 0 59246 47700.00000 0 15692990.968 19948064.805 2675133.633 10 0 59246 48600.00000 0 15488052.119 19420808.847 5859242.045 10 0 59246 49500.00000 0 14963516.219 18647892.297 8929710.221 10 0 59246 50400.00000 0 14098659.886 17684394.621 11826996.896 10 0 59246 51300.00000 0 12885449.400 16590156.563 14494921.580 10 0 59246 52200.00000 0 11329115.983 15427169.598 16881749.046 10 0 59246 53100.00000 0 9448184.036 14256894.024 18941187.522 10 0 59246 54000.00000 0 7273950.111 13137618.042 20633281.826 10 0 59246 54900.00000 0 4849433.123 12121968.309 21925184.721 10 0 59246 55800.00000 0 2227838.264 11254675.954 22791792.075 10 0 59246 56700.00000 0 -529402.992 10570691.308 23216229.991 10 0 59246 57600.00000 0 -3354936.848 10093726.038 23190184.725 10 0 59246 58500.00000 0 -6178040.893 9835283.671 22714069.011 10 0 59246 59400.00000 0 -8927322.962 9794219.169 21797021.305 10 0 59246 60300.00000 0 -11533454.393 9956846.304 20456737.356 10 0 59246 61200.00000 0 -13931825.036 10297588.786 18719136.608 10 0 59246 62100.00000 0 -16065010.393 10780148.311 16617868.900 10 0 59246 63000.00000 0 -17884948.674 11359141.010 14193669.982 10 0 59246 63900.00000 0 -19354737.038 11982133.855 11493577.436 10 0 59246 64800.00000 0 -20449972.109 12591995.445 8570021.430 10 0 59246 65700.00000 0 -21159578.524 13129461.966 5479807.428 10 0 59246 66600.00000 0 -21486090.637 13535809.564 2283010.560 10 0 59246 67500.00000 0 -21445375.617 13755519.458 -958196.658 10 0 59246 68400.00000 0 -21065809.735 13738822.078 -4180759.928 10 0 59246 69300.00000 0 -20386942.945 13444011.359 -7321977.532 10 0 59246 70200.00000 0 -19457708.717 12839429.961 -10320728.477 10 0 59246 71100.00000 0 -18334255.428 11905040.097 -13118669.553 10 0 59246 72000.00000 0 -17077491.748 10633512.330 -15661376.981 10 0 59246 72900.00000 0 -15750450.495 9030785.239 -17899409.783 10 0 59246 73800.00000 0 -14415582.924 7116071.328 -19789273.764 10 0 59246 74700.00000 0 -13132098.096 4921308.175 -21294267.152 10 0 59246 75600.00000 0 -11953459.666 2490077.140 -22385191.684 10 0 59246 76500.00000 0 -10925145.410 -123965.672 -23040915.712 10 0 59246 77400.00000 0 -10082763.363 -2859080.990 -23248778.959 10 0 59246 78300.00000 0 -9450603.050 -5647777.920 -23004831.739 10 0 59246 79200.00000 0 -9040681.817 -8419388.733 -22313904.665 10 0 59246 80100.00000 0 -8852325.235 -11102780.228 -21189508.055 10 0 59246 81000.00000 0 -8872298.130 -13629089.446 -19653563.471 10 0 59246 81900.00000 0 -9075479.577 -15934370.765 -17735972.853 10 0 59246 82800.00000 0 -9426052.535 -17962044.895 -15474033.822 10 0 59246 83700.00000 0 -9879157.156 -19665048.851 -12911712.519 10 0 59246 84600.00000 0 -10382937.476 -21007598.306 -10098788.035 10 0 59246 85500.00000 0 -10880894.672 -21966489.859 -7089885.055 99